Time,TemperatureF,DewpointF,PressureIn,WindDirection,WindDirectionDegrees,WindSpeedMPH,WindSpeedGustMPH,Humidity,HourlyPrecipIn,Conditions,Clouds,dailyrainin,SolarRadiationWatts/m^2,SoftwareType,DateUTC
2013-12-31 00:01:00,21.2,4.6,30.24,NNE,22,0.0,4.7,48,0.00,,BKN,0.00,0.00,VWS V14.01,2013-12-31 05:01:00,
2013-12-31 00:03:00,21.2,5.0,30.24,North,0,2.5,3.4,49,0.00,,BKN,0.00,0.00,VWS V14.01,2013-12-31 05:03:00,
2013-12-31 00:05:00,21.2,4.6,30.24,NNW,338,1.3,3.4,48,0.00,,BKN,0.00,0.00,VWS V14.01,2013-12-31 05:05:00,
2013-12-31 00:07:00,21.2,4.6,30.24,North,0,1.6,3.4,48,0.00,,BKN,0.00,0.00,VWS V14.01,2013-12-31 05:07:00,
2013-12-31 00:12:00,21.2,5.0,30.24,West,270,1.3,6.0,49,0.00,,BKN,0.00,0.00,VWS V14.01,2013-12-31 05:12:00,
2013-12-31 00:17:00,21.2,5.0,30.30,NW,315,4.3,4.3,49,0.00,,BKN,0.00,0.00,VWS V14.01,2013-12-31 05:17:00,
2013-12-31 00:19:00,21.0,4.9,30.30,NW,315,2.2,4.3,49,0.00,,BKN,0.00,0.00,VWS V14.01,2013-12-31 05:19:00,
2013-12-31 00:24:00,21.0,4.4,30.30,NW,315,3.6,6.5,48,0.00,,BKN,0.00,0.00,VWS V14.01,2013-12-31 05:24:00,
2013-12-31 00:29:00,21.2,4.6,30.30,NW,315,4.9,6.5,48,0.00,,BKN,0.00,0.00,VWS V14.01,2013-12-31 05:29:00,
2013-12-31 00:34:00,21.0,4.4,30.24,NNW,338,0.0,4.9,48,0.00,,BKN,0.00,0.00,VWS V14.01,2013-12-31 05:34:00,
2013-12-31 00:39:00,21.0,4.4,30.24,NNW,338,2.2,4.3,48,0.00,,BKN,0.00,0.00,VWS V14.01,2013-12-31 05:39:00,
2013-12-31 00:44:00,21.0,4.4,30.24,NW,315,3.6,4.3,48,0.00,,BKN,0.00,0.00,VWS V14.01,2013-12-31 05:44:00,
2013-12-31 00:50:00,21.0,4.0,30.27,North,0,2.9,5.8,47,0.00,,BKN,0.00,0.00,VWS V14.01,2013-12-31 05:50:00,
2013-12-31 00:55:00,21.0,4.4,30.27,North,0,2.9,5.6,48,0.00,,BKN,0.00,0.00,VWS V14.01,2013-12-31 05:55:00,
2013-12-31 01:00:00,20.8,3.8,30.27,North,0,3.1,4.3,47,0.00,,BKN,0.00,0.00,VWS V14.01,2013-12-31 06:00:00,
2013-12-31 01:06:00,20.8,3.8,30.27,North,0,1.6,4.3,47,0.00,,BKN,0.00,0.00,VWS V14.01,2013-12-31 06:06:00,
2013-12-31 01:11:00,20.8,4.2,30.27,NNE,22,2.9,3.4,48,0.00,,BKN,0.00,0.00,VWS V14.01,2013-12-31 06:11:00,
2013-12-31 01:16:00,20.7,4.1,30.27,NNW,338,1.3,2.9,48,0.00,,BKN,0.00,0.00,VWS V14.01,2013-12-31 06:16:00,
2013-12-31 01:21:00,20.5,3.9,30.27,NNW,338,2.0,3.4,48,0.00,,BKN,0.00,0.00,VWS V14.01,2013-12-31 06:21:00,
2013-12-31 01:26:00,20.5,3.9,30.27,North,0,2.5,3.1,48,0.00,,BKN,0.00,0.00,VWS V14.01,2013-12-31 06:26:00,
2013-12-31 01:31:00,20.5,4.4,30.24,North,0,2.7,3.1,49,0.00,,BKN,0.00,0.00,VWS V14.01,2013-12-31 06:31:00,
2013-12-31 01:36:00,20.5,4.4,30.24,NNE,22,3.1,3.8,49,0.00,,BKN,0.00,0.00,VWS V14.01,2013-12-31 06:36:00,
2013-12-31 01:41:00,20.5,4.4,30.24,North,0,3.6,4.0,49,0.00,,BKN,0.00,0.00,VWS V14.01,2013-12-31 06:41:00,
2013-12-31 01:46:00,20.5,4.4,30.27,NE,45,2.0,5.4,49,0.00,,BKN,0.00,0.00,VWS V14.01,2013-12-31 06:46:00,
2013-12-31 01:51:00,20.5,3.9,30.27,NW,315,3.8,7.4,48,0.00,,BKN,0.00,0.00,VWS V14.01,2013-12-31 06:51:00,
2013-12-31 01:56:00,20.5,3.9,30.27,NE,45,4.3,6.0,48,0.00,,BKN,0.00,0.00,VWS V14.01,2013-12-31 06:56:00,
2013-12-31 02:01:00,20.5,3.5,30.27,NNW,338,3.8,6.3,47,0.00,,BKN,0.00,0.00,VWS V14.01,2013-12-31 07:01:00,
2013-12-31 02:06:00,20.7,3.6,30.27,NNE,22,4.0,5.8,47,0.00,,BKN,0.00,0.00,VWS V14.01,2013-12-31 07:06:00,
2013-12-31 02:11:00,20.7,4.1,30.27,North,0,2.9,5.8,48,0.00,,BKN,0.00,0.00,VWS V14.01,2013-12-31 07:11:00,
2013-12-31 02:16:00,20.7,4.1,30.27,North,0,2.5,5.6,48,0.00,,BKN,0.00,0.00,VWS V14.01,2013-12-31 07:16:00,
2013-12-31 02:21:00,20.5,3.9,30.27,North,0,3.1,4.9,48,0.00,,BKN,0.00,0.00,VWS V14.01,2013-12-31 07:21:00,
2013-12-31 02:26:00,20.5,3.9,30.27,ENE,68,2.9,4.9,48,0.00,,BKN,0.00,0.00,VWS V14.01,2013-12-31 07:26:00,
2013-12-31 02:31:00,20.5,3.9,30.27,NNE,22,2.9,6.0,48,0.00,,BKN,0.00,0.00,VWS V14.01,2013-12-31 07:31:00,
2013-12-31 02:36:00,20.7,4.1,30.27,North,0,2.7,6.0,48,0.00,,BKN,0.00,0.00,VWS V14.01,2013-12-31 07:36:00,
2013-12-31 02:41:00,20.7,4.1,30.27,North,0,4.9,4.9,48,0.00,,BKN,0.00,0.00,VWS V14.01,2013-12-31 07:41:00,
2013-12-31 02:46:00,20.8,3.8,30.27,NE,45,5.4,6.0,47,0.00,,BKN,0.00,0.00,VWS V14.01,2013-12-31 07:46:00,
2013-12-31 02:51:00,20.8,4.2,30.27,NE,45,7.2,7.2,48,0.00,,BKN,0.00,0.00,VWS V14.01,2013-12-31 07:51:00,
2013-12-31 02:56:00,21.0,4.4,30.27,NE,45,4.0,7.2,48,0.00,,BKN,0.00,0.00,VWS V14.01,2013-12-31 07:56:00,
2013-12-31 03:01:00,21.0,4.4,30.27,North,0,4.0,5.6,48,0.00,,BKN,0.00,0.00,VWS V14.01,2013-12-31 08:01:00,
2013-12-31 03:06:00,21.0,4.4,30.27,North,0,3.1,4.5,48,0.00,,BKN,0.00,0.00,VWS V14.01,2013-12-31 08:06:00,
2013-12-31 03:11:00,21.0,4.0,30.27,North,0,3.4,5.6,47,0.00,,BKN,0.00,0.00,VWS V14.01,2013-12-31 08:11:00,
2013-12-31 03:16:00,21.0,4.0,30.27,NE,45,2.5,8.1,47,0.00,,BKN,0.00,0.00,VWS V14.01,2013-12-31 08:16:00,
2013-12-31 03:21:00,21.0,4.0,30.27,NNW,338,2.9,6.7,47,0.00,,BKN,0.00,0.00,VWS V14.01,2013-12-31 08:21:00,
2013-12-31 03:26:00,21.0,4.0,30.27,NNE,22,2.5,6.3,47,0.00,,BKN,0.00,0.00,VWS V14.01,2013-12-31 08:26:00,
2013-12-31 03:31:00,21.0,4.0,30.27,North,0,3.8,6.7,47,0.00,,BKN,0.00,0.00,VWS V14.01,2013-12-31 08:31:00,
2013-12-31 03:36:00,21.0,4.0,30.27,NE,45,4.0,4.0,47,0.00,,BKN,0.00,0.00,VWS V14.01,2013-12-31 08:36:00,
2013-12-31 03:41:00,21.0,4.0,30.27,NE,45,3.1,4.7,47,0.00,,BKN,0.00,0.00,VWS V14.01,2013-12-31 08:41:00,
2013-12-31 03:46:00,21.0,4.0,30.27,North,0,2.0,3.8,47,0.00,,BKN,0.00,0.00,VWS V14.01,2013-12-31 08:46:00,
2013-12-31 03:51:00,21.0,4.0,30.27,NW,315,2.7,3.8,47,0.00,,BKN,0.00,0.00,VWS V14.01,2013-12-31 08:51:00,
2013-12-31 03:56:00,21.0,4.0,30.27,North,0,2.5,4.7,47,0.00,,BKN,0.00,0.00,VWS V14.01,2013-12-31 08:56:00,
2013-12-31 04:01:00,21.0,4.0,30.27,NNW,338,3.6,4.3,47,0.00,,BKN,0.00,0.00,VWS V14.01,2013-12-31 09:01:00,
2013-12-31 04:06:00,21.0,4.0,30.27,NNW,338,2.9,4.3,47,0.00,,BKN,0.00,0.00,VWS V14.01,2013-12-31 09:06:00,
2013-12-31 04:11:00,21.0,4.4,30.27,NNW,338,2.5,4.0,48,0.00,,BKN,0.00,0.00,VWS V14.01,2013-12-31 09:11:00,
2013-12-31 04:16:00,21.0,4.0,30.24,NNE,22,3.6,4.3,47,0.00,,BKN,0.00,0.00,VWS V14.01,2013-12-31 09:16:00,
2013-12-31 04:21:00,21.0,4.0,30.24,West,270,2.0,4.0,47,0.00,,BKN,0.00,0.00,VWS V14.01,2013-12-31 09:21:00,
2013-12-31 04:26:00,21.2,4.6,30.24,NW,315,2.7,4.0,48,0.00,,BKN,0.00,0.00,VWS V14.01,2013-12-31 09:26:00,
2013-12-31 04:31:00,21.2,4.6,30.24,NNE,22,0.0,4.0,48,0.00,,BKN,0.00,0.00,VWS V14.01,2013-12-31 09:31:00,
2013-12-31 04:36:00,21.2,4.6,30.24,North,0,0.0,3.4,48,0.00,,BKN,0.00,0.00,VWS V14.01,2013-12-31 09:36:00,
2013-12-31 04:41:00,21.0,4.4,30.24,WNW,292,1.1,2.9,48,0.00,,BKN,0.00,0.00,VWS V14.01,2013-12-31 09:41:00,
2013-12-31 04:46:00,21.0,4.4,30.24,NW,315,1.3,2.7,48,0.00,,BKN,0.00,0.00,VWS V14.01,2013-12-31 09:46:00,
2013-12-31 04:51:00,21.0,4.4,30.24,WNW,292,2.5,2.5,48,0.00,,BKN,0.00,0.00,VWS V14.01,2013-12-31 09:51:00,
2013-12-31 04:56:00,20.8,3.8,30.24,WSW,248,0.0,2.5,47,0.00,,BKN,0.00,0.00,VWS V14.01,2013-12-31 09:56:00,
2013-12-31 05:01:00,20.8,3.8,30.24,West,270,0.0,2.5,47,0.00,,BKN,0.00,0.00,VWS V14.01,2013-12-31 10:01:00,
2013-12-31 05:06:00,20.8,3.8,30.24,West,270,0.0,0.0,47,0.00,,BKN,0.00,0.00,VWS V14.01,2013-12-31 10:06:00,
2013-12-31 05:11:00,20.8,3.8,30.24,NNW,338,2.7,3.1,47,0.00,,BKN,0.00,0.00,VWS V14.01,2013-12-31 10:11:00,
2013-12-31 05:16:00,20.8,4.2,30.24,NW,315,0.0,3.1,48,0.00,,BKN,0.00,0.00,VWS V14.01,2013-12-31 10:16:00,
2013-12-31 05:21:00,20.7,3.6,30.24,NNW,338,1.1,2.2,47,0.00,,BKN,0.00,0.00,VWS V14.01,2013-12-31 10:21:00,
2013-12-31 05:26:00,20.7,4.1,30.24,North,0,0.0,2.9,48,0.00,,BKN,0.00,0.00,VWS V14.01,2013-12-31 10:26:00,
2013-12-31 05:31:00,20.7,3.6,30.24,North,0,0.0,2.2,47,0.00,,BKN,0.00,0.00,VWS V14.01,2013-12-31 10:31:00,
2013-12-31 05:36:00,20.7,4.1,30.24,WNW,292,0.0,0.0,48,0.00,,BKN,0.00,0.00,VWS V14.01,2013-12-31 10:36:00,
2013-12-31 05:41:00,20.7,4.1,30.24,NW,315,0.0,0.0,48,0.00,,BKN,0.00,0.00,VWS V14.01,2013-12-31 10:41:00,
2013-12-31 05:46:00,20.5,3.9,30.24,NNE,22,2.5,2.5,48,0.00,,BKN,0.00,0.00,VWS V14.01,2013-12-31 10:46:00,
2013-12-31 05:51:00,20.3,3.8,30.24,West,270,0.0,2.5,48,0.00,,BKN,0.00,0.00,VWS V14.01,2013-12-31 10:51:00,
2013-12-31 05:56:00,20.3,3.8,30.24,NW,315,0.0,2.5,48,0.00,,BKN,0.00,0.00,VWS V14.01,2013-12-31 10:56:00,
2013-12-31 06:01:00,20.1,3.6,30.24,NNW,338,0.0,0.0,48,0.00,,BKN,0.00,0.00,VWS V14.01,2013-12-31 11:01:00,
2013-12-31 06:06:00,19.9,3.4,30.24,NNW,338,0.0,0.0,48,0.00,,BKN,0.00,0.00,VWS V14.01,2013-12-31 11:06:00,
2013-12-31 06:12:00,19.8,3.3,30.24,NNW,338,0.0,0.0,48,0.00,,BKN,0.00,0.00,VWS V14.01,2013-12-31 11:12:00,
2013-12-31 06:17:00,19.8,3.3,30.24,North,0,0.0,0.0,48,0.00,,BKN,0.00,0.00,VWS V14.01,2013-12-31 11:17:00,
2013-12-31 06:23:00,19.8,3.7,30.24,North,0,0.0,0.0,49,0.00,,BKN,0.00,0.00,VWS V14.01,2013-12-31 11:23:00,
2013-12-31 06:28:00,19.8,3.7,30.24,West,270,0.0,0.0,49,0.00,,BKN,0.00,0.00,VWS V14.01,2013-12-31 11:28:00,
2013-12-31 06:33:00,19.8,3.7,30.27,North,0,0.0,0.0,49,0.00,,BKN,0.00,0.00,VWS V14.01,2013-12-31 11:33:00,
2013-12-31 06:38:00,19.9,3.9,30.27,North,0,1.6,2.2,49,0.00,,BKN,0.00,0.00,VWS V14.01,2013-12-31 11:38:00,
2013-12-31 06:43:00,20.3,4.2,30.27,North,0,0.0,2.2,49,0.00,,BKN,0.00,0.00,VWS V14.01,2013-12-31 11:43:00,
2013-12-31 06:48:00,20.5,3.9,30.24,North,0,0.0,0.0,48,0.00,,BKN,0.00,0.00,VWS V14.01,2013-12-31 11:48:00,
2013-12-31 06:53:00,20.5,4.4,30.24,West,270,0.0,0.0,49,0.00,,BKN,0.00,0.00,VWS V14.01,2013-12-31 11:53:00,
2013-12-31 06:58:00,20.7,4.5,30.24,West,270,0.0,2.5,49,0.00,,BKN,0.00,0.00,VWS V14.01,2013-12-31 11:58:00,
2013-12-31 07:03:00,20.7,4.5,30.24,ENE,68,0.0,0.0,49,0.00,,BKN,0.00,0.00,VWS V14.01,2013-12-31 12:03:00,
2013-12-31 07:08:00,20.7,4.5,30.24,NNW,338,0.0,0.0,49,0.00,,BKN,0.00,0.00,VWS V14.01,2013-12-31 12:08:00,
2013-12-31 07:13:00,20.7,4.5,30.24,NW,315,0.0,0.0,49,0.00,,BKN,0.00,0.00,VWS V14.01,2013-12-31 12:13:00,
2013-12-31 07:18:00,20.7,4.5,30.24,NW,315,0.0,0.0,49,0.00,,BKN,0.00,0.00,VWS V14.01,2013-12-31 12:18:00,
2013-12-31 07:23:00,20.5,3.9,30.24,SSE,158,0.0,0.0,48,0.00,,BKN,0.00,0.00,VWS V14.01,2013-12-31 12:23:00,
2013-12-31 07:28:00,20.5,3.9,30.24,East,90,2.0,2.5,48,0.00,,BKN,0.00,0.00,VWS V14.01,2013-12-31 12:28:00,
2013-12-31 07:33:00,20.7,4.1,30.21,SSE,158,0.0,2.2,48,0.00,,BKN,0.00,0.00,VWS V14.01,2013-12-31 12:33:00,
2013-12-31 07:38:00,20.7,4.5,30.21,South,180,2.5,2.5,49,0.00,,BKN,0.00,0.00,VWS V14.01,2013-12-31 12:38:00,
2013-12-31 07:43:00,20.8,4.7,30.21,SE,135,3.1,3.1,49,0.00,,BKN,0.00,0.00,VWS V14.01,2013-12-31 12:43:00,
2013-12-31 07:48:00,21.0,4.9,30.21,SW,225,1.3,3.1,49,0.00,,BKN,0.00,0.00,VWS V14.01,2013-12-31 12:48:00,
2013-12-31 07:53:00,21.2,5.0,30.21,SE,135,0.0,2.2,49,0.00,,BKN,0.00,0.00,VWS V14.01,2013-12-31 12:53:00,
2013-12-31 07:58:00,21.2,5.0,30.21,SSE,158,1.1,2.0,49,0.00,,BKN,0.00,0.00,VWS V14.01,2013-12-31 12:58:00,
2013-12-31 08:03:00,21.2,5.0,30.21,WSW,248,0.0,2.0,49,0.00,,BKN,0.00,0.00,VWS V14.01,2013-12-31 13:03:00,
2013-12-31 08:08:00,21.2,5.0,30.21,SW,225,2.2,2.9,49,0.00,,BKN,0.00,0.00,VWS V14.01,2013-12-31 13:08:00,
2013-12-31 08:13:00,21.2,4.6,30.21,SW,225,2.9,2.9,48,0.00,,BKN,0.00,0.00,VWS V14.01,2013-12-31 13:13:00,
2013-12-31 08:18:00,21.4,4.8,30.24,West,270,2.0,2.9,48,0.00,,BKN,0.00,0.00,VWS V14.01,2013-12-31 13:18:00,
2013-12-31 08:23:00,21.6,4.9,30.24,SW,225,2.0,2.5,48,0.00,,BKN,0.00,0.00,VWS V14.01,2013-12-31 13:23:00,
2013-12-31 08:28:00,21.6,4.5,30.24,SW,225,2.2,2.5,47,0.00,,BKN,0.00,0.00,VWS V14.01,2013-12-31 13:28:00,
2013-12-31 08:33:00,21.6,4.0,30.24,SW,225,3.4,3.4,46,0.00,,BKN,0.00,0.00,VWS V14.01,2013-12-31 13:33:00,
2013-12-31 08:38:00,21.6,4.0,30.24,WSW,248,3.4,3.4,46,0.00,,BKN,0.00,0.00,VWS V14.01,2013-12-31 13:38:00,
2013-12-31 08:43:00,21.9,4.3,30.24,SW,225,2.0,3.4,46,0.00,,BKN,0.00,0.00,VWS V14.01,2013-12-31 13:43:00,
2013-12-31 08:48:00,22.5,4.3,30.24,SW,225,2.0,3.1,45,0.00,,BKN,0.00,0.00,VWS V14.01,2013-12-31 13:48:00,
2013-12-31 08:53:00,22.8,5.2,30.24,WSW,248,3.4,3.4,46,0.00,,BKN,0.00,0.00,VWS V14.01,2013-12-31 13:53:00,
2013-12-31 08:58:00,23.4,4.7,30.24,WSW,248,3.1,3.8,44,0.00,,BKN,0.00,0.00,VWS V14.01,2013-12-31 13:58:00,
2013-12-31 09:03:00,23.7,5.0,30.21,SW,225,2.7,3.8,44,0.00,,BKN,0.00,0.00,VWS V14.01,2013-12-31 14:03:00,
2013-12-31 09:08:00,23.9,5.2,30.21,SW,225,2.0,3.8,44,0.00,,BKN,0.00,0.00,VWS V14.01,2013-12-31 14:08:00,
2013-12-31 09:13:00,23.7,5.0,30.21,WSW,248,3.1,4.0,44,0.00,,BKN,0.00,0.00,VWS V14.01,2013-12-31 14:13:00,
2013-12-31 09:18:00,23.9,5.2,30.24,West,270,2.0,3.4,44,0.00,,BKN,0.00,0.00,VWS V14.01,2013-12-31 14:18:00,
2013-12-31 09:23:00,24.6,6.3,30.24,SW,225,1.3,3.8,45,0.00,,BKN,0.00,0.00,VWS V14.01,2013-12-31 14:23:00,
2013-12-31 09:28:00,24.8,6.5,30.24,WSW,248,2.2,3.8,45,0.00,,BKN,0.00,0.00,VWS V14.01,2013-12-31 14:28:00,
2013-12-31 09:33:00,24.8,6.0,30.21,West,270,0.9,4.3,44,0.00,,BKN,0.00,0.00,VWS V14.01,2013-12-31 14:33:00,
2013-12-31 09:38:00,25.0,6.2,30.21,West,270,0.0,4.3,44,0.00,,BKN,0.00,0.00,VWS V14.01,2013-12-31 14:38:00,
2013-12-31 09:43:00,25.2,5.8,30.21,South,180,1.6,3.6,43,0.00,,BKN,0.00,0.00,VWS V14.01,2013-12-31 14:43:00,
2013-12-31 09:48:00,26.1,6.6,30.21,West,270,3.6,3.8,43,0.00,,BKN,0.00,0.00,VWS V14.01,2013-12-31 14:48:00,
2013-12-31 09:53:00,26.1,6.6,30.21,East,90,3.4,5.8,43,0.00,,BKN,0.00,0.00,VWS V14.01,2013-12-31 14:53:00,
2013-12-31 09:58:00,26.2,6.8,30.21,ESE,112,2.0,4.0,43,0.00,,BKN,0.00,0.00,VWS V14.01,2013-12-31 14:58:00,
2013-12-31 10:03:00,26.1,6.6,30.21,SW,225,3.1,3.8,43,0.00,,BKN,0.00,0.00,VWS V14.01,2013-12-31 15:03:00,
2013-12-31 10:08:00,26.1,6.6,30.21,SE,135,2.9,4.0,43,0.00,,BKN,0.00,0.00,VWS V14.01,2013-12-31 15:08:00,
2013-12-31 10:13:00,26.1,6.6,30.21,NW,315,3.4,3.6,43,0.00,,BKN,0.00,0.00,VWS V14.01,2013-12-31 15:13:00,
2013-12-31 10:18:00,26.1,6.6,30.21,South,180,3.1,4.7,43,0.00,,BKN,0.00,0.00,VWS V14.01,2013-12-31 15:18:00,
2013-12-31 10:23:00,26.4,7.0,30.21,SW,225,2.9,4.9,43,0.00,,BKN,0.00,0.00,VWS V14.01,2013-12-31 15:23:00,
2013-12-31 10:28:00,26.8,6.8,30.21,West,270,2.5,4.9,42,0.00,,BKN,0.00,0.00,VWS V14.01,2013-12-31 15:28:00,
2013-12-31 10:33:00,27.1,7.1,30.21,SW,225,2.0,6.0,42,0.00,,BKN,0.00,0.00,VWS V14.01,2013-12-31 15:33:00,
2013-12-31 10:38:00,27.5,7.9,30.21,WSW,248,4.9,5.6,43,0.00,,BKN,0.00,0.00,VWS V14.01,2013-12-31 15:38:00,
2013-12-31 10:43:00,27.9,8.3,30.21,SW,225,3.6,5.6,43,0.00,,BKN,0.00,0.00,VWS V14.01,2013-12-31 15:43:00,
2013-12-31 10:48:00,27.9,7.8,30.21,SW,225,2.7,5.8,42,0.00,,BKN,0.00,0.00,VWS V14.01,2013-12-31 15:48:00,
2013-12-31 10:53:00,27.7,7.6,30.21,SW,225,2.9,5.8,42,0.00,,BKN,0.00,0.00,VWS V14.01,2013-12-31 15:53:00,
2013-12-31 10:58:00,27.9,7.8,30.21,SSW,202,2.5,5.8,42,0.00,,BKN,0.00,0.00,VWS V14.01,2013-12-31 15:58:00,
2013-12-31 11:03:00,27.9,7.8,30.21,SW,225,3.8,5.8,42,0.00,,BKN,0.00,0.00,VWS V14.01,2013-12-31 16:03:00,
2013-12-31 11:08:00,27.7,7.6,30.21,South,180,5.6,6.5,42,0.00,,BKN,0.00,0.00,VWS V14.01,2013-12-31 16:08:00,
2013-12-31 11:13:00,27.9,7.8,30.21,SW,225,4.0,6.5,42,0.00,,BKN,0.00,0.00,VWS V14.01,2013-12-31 16:13:00,
2013-12-31 11:18:00,28.4,8.2,30.18,West,270,2.0,5.8,42,0.00,,BKN,0.00,0.00,VWS V14.01,2013-12-31 16:18:00,
2013-12-31 11:23:00,28.8,8.6,30.18,West,270,6.0,7.6,42,0.00,,BKN,0.00,0.00,VWS V14.01,2013-12-31 16:23:00,
2013-12-31 11:28:00,28.6,8.4,30.18,SW,225,5.4,7.6,42,0.00,,BKN,0.00,0.00,VWS V14.01,2013-12-31 16:28:00,
2013-12-31 11:33:00,28.8,8.6,30.21,South,180,2.7,7.6,42,0.00,,BKN,0.00,0.00,VWS V14.01,2013-12-31 16:33:00,
2013-12-31 11:38:00,28.6,8.4,30.21,SW,225,4.0,8.1,42,0.00,,BKN,0.00,0.00,VWS V14.01,2013-12-31 16:38:00,
2013-12-31 11:43:00,28.6,8.4,30.21,SW,225,5.4,7.8,42,0.00,,BKN,0.00,0.00,VWS V14.01,2013-12-31 16:43:00,
2013-12-31 11:48:00,29.8,9.6,30.18,SW,225,2.7,6.5,42,0.00,,BKN,0.00,0.00,VWS V14.01,2013-12-31 16:48:00,
2013-12-31 11:53:00,30.2,9.9,30.18,WSW,248,4.0,6.5,42,0.00,,BKN,0.00,0.00,VWS V14.01,2013-12-31 16:53:00,
2013-12-31 11:58:00,29.7,9.4,30.18,SW,225,2.5,6.3,42,0.00,,BKN,0.00,0.00,VWS V14.01,2013-12-31 16:58:00,
2013-12-31 12:03:00,29.5,9.2,30.15,SW,225,6.0,8.7,42,0.00,,BKN,0.00,0.00,VWS V14.01,2013-12-31 17:03:00,
2013-12-31 12:08:00,29.8,9.6,30.15,South,180,3.8,8.7,42,0.00,,BKN,0.00,0.00,VWS V14.01,2013-12-31 17:08:00,
2013-12-31 12:13:00,30.6,9.7,30.15,WSW,248,2.5,6.7,41,0.00,,BKN,0.00,0.00,VWS V14.01,2013-12-31 17:13:00,
2013-12-31 12:18:00,30.6,9.7,30.15,SW,225,4.9,8.1,41,0.00,,BKN,0.00,0.00,VWS V14.01,2013-12-31 17:18:00,
2013-12-31 12:23:00,30.6,9.7,30.15,WSW,248,2.7,8.1,41,0.00,,BKN,0.00,0.00,VWS V14.01,2013-12-31 17:23:00,
2013-12-31 12:28:00,30.6,9.7,30.15,SW,225,1.6,7.8,41,0.00,,BKN,0.00,0.00,VWS V14.01,2013-12-31 17:28:00,
2013-12-31 12:33:00,30.9,10.5,30.15,WSW,248,5.4,7.8,42,0.00,,BKN,0.00,0.00,VWS V14.01,2013-12-31 17:33:00,
2013-12-31 12:38:00,31.1,10.2,30.15,WSW,248,3.1,6.0,41,0.00,,BKN,0.00,0.00,VWS V14.01,2013-12-31 17:38:00,
2013-12-31 12:43:00,30.7,9.8,30.15,South,180,4.0,6.0,41,0.00,,BKN,0.00,0.00,VWS V14.01,2013-12-31 17:43:00,
2013-12-31 12:48:00,31.1,10.2,30.15,WSW,248,6.3,6.3,41,0.00,,BKN,0.00,0.00,VWS V14.01,2013-12-31 17:48:00,
2013-12-31 12:53:00,31.3,10.9,30.15,WSW,248,4.9,6.9,42,0.00,,BKN,0.00,0.00,VWS V14.01,2013-12-31 17:53:00,
2013-12-31 12:58:00,30.9,10.0,30.15,SW,225,4.7,7.2,41,0.00,,BKN,0.00,0.00,VWS V14.01,2013-12-31 17:58:00,
2013-12-31 13:03:00,30.9,10.0,30.12,South,180,3.1,7.8,41,0.00,,BKN,0.00,0.00,VWS V14.01,2013-12-31 18:03:00,
2013-12-31 13:08:00,31.1,10.7,30.12,SW,225,7.4,7.4,42,0.00,,BKN,0.00,0.00,VWS V14.01,2013-12-31 18:08:00,
2013-12-31 13:13:00,30.9,10.0,30.12,SW,225,6.3,9.2,41,0.00,,BKN,0.00,0.00,VWS V14.01,2013-12-31 18:13:00,
2013-12-31 13:18:00,30.6,10.2,30.15,SW,225,4.9,10.5,42,0.00,,BKN,0.00,0.00,VWS V14.01,2013-12-31 18:18:00,
2013-12-31 13:23:00,30.7,10.4,30.15,WSW,248,2.7,8.7,42,0.00,,BKN,0.00,0.00,VWS V14.01,2013-12-31 18:23:00,
2013-12-31 13:28:00,30.6,10.2,30.15,West,270,2.0,5.8,42,0.00,,BKN,0.00,0.00,VWS V14.01,2013-12-31 18:28:00,
2013-12-31 13:33:00,30.7,10.4,30.12,WSW,248,3.1,5.6,42,0.00,,BKN,0.00,0.00,VWS V14.01,2013-12-31 18:33:00,
2013-12-31 13:38:00,31.1,10.7,30.12,SW,225,4.0,7.2,42,0.00,,BKN,0.00,0.00,VWS V14.01,2013-12-31 18:38:00,
2013-12-31 13:43:00,31.1,10.7,30.12,West,270,4.0,5.8,42,0.00,,BKN,0.00,0.00,VWS V14.01,2013-12-31 18:43:00,
2013-12-31 13:48:00,31.1,11.2,30.15,SW,225,2.2,5.6,43,0.00,,BKN,0.00,0.00,VWS V14.01,2013-12-31 18:48:00,
2013-12-31 13:53:00,30.9,11.1,30.15,SW,225,6.0,9.6,43,0.00,,BKN,0.00,0.00,VWS V14.01,2013-12-31 18:53:00,
2013-12-31 13:58:00,31.1,11.2,30.15,SW,225,7.2,9.6,43,0.00,,BKN,0.00,0.00,VWS V14.01,2013-12-31 18:58:00,
2013-12-31 14:03:00,31.3,11.4,30.15,SW,225,6.0,8.7,43,0.00,,BKN,0.00,0.00,VWS V14.01,2013-12-31 19:03:00,
2013-12-31 14:08:00,31.3,11.4,30.15,SW,225,5.4,7.6,43,0.00,,BKN,0.00,0.00,VWS V14.01,2013-12-31 19:08:00,
2013-12-31 14:13:00,31.3,11.4,30.15,SW,225,5.8,7.2,43,0.00,,BKN,0.00,0.00,VWS V14.01,2013-12-31 19:13:00,
2013-12-31 14:18:00,31.3,11.4,30.15,SW,225,3.6,6.0,43,0.00,,BKN,0.00,0.00,VWS V14.01,2013-12-31 19:18:00,
2013-12-31 14:23:00,31.5,12.1,30.15,SW,225,2.9,6.0,44,0.00,,BKN,0.00,0.00,VWS V14.01,2013-12-31 19:23:00,
2013-12-31 14:28:00,31.3,11.9,30.15,SW,225,5.6,6.3,44,0.00,,BKN,0.00,0.00,VWS V14.01,2013-12-31 19:28:00,
2013-12-31 14:33:00,31.3,11.9,30.15,WSW,248,4.3,11.0,44,0.00,,BKN,0.00,0.00,VWS V14.01,2013-12-31 19:33:00,
2013-12-31 14:38:00,31.5,12.1,30.15,SW,225,3.4,6.0,44,0.00,,BKN,0.00,0.00,VWS V14.01,2013-12-31 19:38:00,
2013-12-31 14:43:00,31.6,12.8,30.15,SW,225,2.7,6.3,45,0.00,,BKN,0.00,0.00,VWS V14.01,2013-12-31 19:43:00,
2013-12-31 14:48:00,31.8,13.4,30.15,SW,225,3.4,6.3,46,0.00,,BKN,0.00,0.00,VWS V14.01,2013-12-31 19:48:00,
2013-12-31 14:53:00,32.0,13.6,30.15,South,180,3.1,7.2,46,0.00,,BKN,0.00,0.00,VWS V14.01,2013-12-31 19:53:00,
2013-12-31 14:58:00,32.0,14.1,30.15,West,270,3.4,6.5,47,0.00,,BKN,0.00,0.00,VWS V14.01,2013-12-31 19:58:00,
2013-12-31 15:03:00,32.2,14.7,30.15,SW,225,5.4,6.5,48,0.00,,BKN,0.00,0.00,VWS V14.01,2013-12-31 20:03:00,
2013-12-31 15:08:00,32.2,14.7,30.15,WSW,248,4.0,8.1,48,0.00,,BKN,0.00,0.00,VWS V14.01,2013-12-31 20:08:00,
2013-12-31 15:13:00,32.0,15.5,30.15,West,270,7.6,7.6,50,0.00,,BKN,0.00,0.00,VWS V14.01,2013-12-31 20:13:00,
2013-12-31 15:18:00,31.8,16.2,30.15,WSW,248,2.9,10.1,52,0.00,,BKN,0.00,0.00,VWS V14.01,2013-12-31 20:18:00,
2013-12-31 15:23:00,31.6,16.5,30.15,SW,225,3.8,10.3,53,0.00,,BKN,0.00,0.00,VWS V14.01,2013-12-31 20:23:00,
2013-12-31 15:28:00,31.5,15.9,30.15,West,270,7.4,10.3,52,0.00,,BKN,0.00,0.00,VWS V14.01,2013-12-31 20:28:00,
2013-12-31 15:33:00,31.5,16.3,30.18,SW,225,4.0,9.6,53,0.00,,BKN,0.00,0.00,VWS V14.01,2013-12-31 20:33:00,
2013-12-31 15:38:00,31.5,16.8,30.18,WSW,248,4.9,7.6,54,0.00,,BKN,0.00,0.00,VWS V14.01,2013-12-31 20:38:00,
2013-12-31 15:43:00,31.6,17.3,30.18,West,270,3.6,8.7,55,0.00,,BKN,0.00,0.00,VWS V14.01,2013-12-31 20:43:00,
2013-12-31 15:48:00,32.0,17.7,30.18,WSW,248,3.6,10.1,55,0.00,,BKN,0.00,0.00,VWS V14.01,2013-12-31 20:48:00,
2013-12-31 15:53:00,31.6,17.8,30.18,SW,225,4.3,11.0,56,0.00,,BKN,0.00,0.00,VWS V14.01,2013-12-31 20:53:00,
2013-12-31 15:58:00,31.3,17.8,30.18,WSW,248,3.8,11.0,57,0.00,,BKN,0.00,0.00,VWS V14.01,2013-12-31 20:58:00,
2013-12-31 16:03:00,31.1,17.7,30.15,ESE,112,2.2,6.5,57,0.00,,BKN,0.00,0.00,VWS V14.01,2013-12-31 21:03:00,
2013-12-31 16:08:00,30.7,17.7,30.15,WSW,248,3.8,7.4,58,0.00,,BKN,0.00,0.00,VWS V14.01,2013-12-31 21:08:00,
2013-12-31 16:13:00,30.7,18.1,30.15,SSW,202,5.6,7.6,59,0.00,,BKN,0.00,0.00,VWS V14.01,2013-12-31 21:13:00,
2013-12-31 16:18:00,30.6,18.3,30.18,SW,225,7.6,7.6,60,0.00,,BKN,0.00,0.00,VWS V14.01,2013-12-31 21:18:00,
2013-12-31 16:23:00,30.6,18.0,30.18,West,270,4.9,8.1,59,0.00,,BKN,0.00,0.00,VWS V14.01,2013-12-31 21:23:00,
2013-12-31 16:28:00,30.4,18.2,30.18,SW,225,3.1,8.5,60,0.00,,BKN,0.00,0.00,VWS V14.01,2013-12-31 21:28:00,
2013-12-31 16:33:00,30.2,18.0,30.18,WSW,248,2.9,5.8,60,0.00,,BKN,0.00,0.00,VWS V14.01,2013-12-31 21:33:00,
2013-12-31 16:38:00,30.2,18.4,30.18,SW,225,4.3,8.1,61,0.00,,BKN,0.00,0.00,VWS V14.01,2013-12-31 21:38:00,
2013-12-31 16:43:00,30.0,18.6,30.18,WSW,248,1.3,8.1,62,0.00,,BKN,0.00,0.00,VWS V14.01,2013-12-31 21:43:00,
2013-12-31 16:48:00,29.8,18.4,30.18,WSW,248,3.8,7.2,62,0.00,,BKN,0.00,0.00,VWS V14.01,2013-12-31 21:48:00,
2013-12-31 16:53:00,29.8,18.4,30.18,WSW,248,4.7,6.3,62,0.00,,BKN,0.00,0.00,VWS V14.01,2013-12-31 21:53:00,
2013-12-31 16:58:00,29.7,17.9,30.18,NW,315,1.3,6.3,61,0.00,,BKN,0.00,0.00,VWS V14.01,2013-12-31 21:58:00,
2013-12-31 17:03:00,29.5,17.7,30.18,WSW,248,4.7,4.7,61,0.00,,BKN,0.00,0.00,VWS V14.01,2013-12-31 22:03:00,
2013-12-31 17:08:00,29.5,17.3,30.18,West,270,7.2,7.2,60,0.00,,BKN,0.00,0.00,VWS V14.01,2013-12-31 22:08:00,
2013-12-31 17:13:00,29.7,16.7,30.18,SW,225,3.8,9.8,58,0.00,,BKN,0.00,0.00,VWS V14.01,2013-12-31 22:13:00,
2013-12-31 17:18:00,30.0,15.4,30.18,SSW,202,3.6,9.6,54,0.00,,BKN,0.00,0.00,VWS V14.01,2013-12-31 22:18:00,
2013-12-31 17:23:00,30.0,15.4,30.18,SSW,202,4.9,6.3,54,0.00,,BKN,0.00,0.00,VWS V14.01,2013-12-31 22:23:00,
2013-12-31 17:28:00,30.2,15.1,30.18,SW,225,0.0,13.0,53,0.00,,BKN,0.00,0.00,VWS V14.01,2013-12-31 22:28:00,
2013-12-31 17:33:00,30.2,13.4,30.18,NW,315,2.9,16.6,49,0.00,,BKN,0.00,0.00,VWS V14.01,2013-12-31 22:33:00,
2013-12-31 17:38:00,30.4,11.6,30.18,West,270,6.0,10.5,45,0.00,,BKN,0.00,0.00,VWS V14.01,2013-12-31 22:38:00,
2013-12-31 17:43:00,30.9,10.5,30.18,WNW,292,7.2,15.7,42,0.00,,BKN,0.00,0.00,VWS V14.01,2013-12-31 22:43:00,
2013-12-31 17:48:00,31.1,10.7,30.18,WNW,292,3.1,13.6,42,0.00,,BKN,0.00,0.00,VWS V14.01,2013-12-31 22:48:00,
2013-12-31 17:53:00,31.1,10.2,30.18,SW,225,5.4,13.0,41,0.00,,BKN,0.00,0.00,VWS V14.01,2013-12-31 22:53:00,
2013-12-31 17:58:00,31.1,10.2,30.18,West,270,4.3,13.0,41,0.00,,BKN,0.00,0.00,VWS V14.01,2013-12-31 22:58:00,
2013-12-31 18:03:00,31.1,10.2,30.21,NW,315,7.2,8.5,41,0.00,,BKN,0.00,0.00,VWS V14.01,2013-12-31 23:03:00,
2013-12-31 18:08:00,31.1,10.2,30.21,NW,315,4.3,8.5,41,0.00,,BKN,0.00,0.00,VWS V14.01,2013-12-31 23:08:00,
2013-12-31 18:13:00,31.1,10.2,30.21,West,270,4.0,14.8,41,0.00,,BKN,0.00,0.00,VWS V14.01,2013-12-31 23:13:00,
2013-12-31 18:18:00,31.1,10.2,30.21,WSW,248,7.8,10.3,41,0.00,,BKN,0.00,0.00,VWS V14.01,2013-12-31 23:18:00,
2013-12-31 18:23:00,31.1,10.2,30.21,WSW,248,8.1,13.2,41,0.00,,BKN,0.00,0.00,VWS V14.01,2013-12-31 23:23:00,
2013-12-31 18:28:00,30.9,10.0,30.21,SW,225,2.7,11.0,41,0.00,,BKN,0.00,0.00,VWS V14.01,2013-12-31 23:28:00,
2013-12-31 18:33:00,30.7,9.8,30.21,NW,315,6.7,10.7,41,0.00,,BKN,0.00,0.00,VWS V14.01,2013-12-31 23:33:00,
2013-12-31 18:38:00,30.6,9.7,30.21,NW,315,2.9,12.8,41,0.00,,BKN,0.00,0.00,VWS V14.01,2013-12-31 23:38:00,
2013-12-31 18:43:00,30.2,9.9,30.21,WSW,248,5.6,7.2,42,0.00,,BKN,0.00,0.00,VWS V14.01,2013-12-31 23:43:00,
2013-12-31 18:48:00,30.2,9.9,30.24,WNW,292,4.3,7.2,42,0.00,,BKN,0.00,0.00,VWS V14.01,2013-12-31 23:48:00,
2013-12-31 18:53:00,30.2,9.9,30.24,West,270,3.8,7.8,42,0.00,,BKN,0.00,0.00,VWS V14.01,2013-12-31 23:53:00,
2013-12-31 18:58:00,30.0,9.7,30.24,SW,225,10.1,10.1,42,0.00,,BKN,0.00,0.00,VWS V14.01,2013-12-31 23:58:00,
2013-12-31 19:03:00,30.0,9.7,30.27,WSW,248,2.5,10.1,42,0.00,,BKN,0.00,0.00,VWS V14.01,2014-01-01 00:03:00,
2013-12-31 19:08:00,29.7,9.4,30.27,WNW,292,4.3,7.4,42,0.00,,BKN,0.00,0.00,VWS V14.01,2014-01-01 00:08:00,
2013-12-31 19:13:00,29.8,9.6,30.27,WSW,248,4.3,8.7,42,0.00,,BKN,0.00,0.00,VWS V14.01,2014-01-01 00:13:00,
2013-12-31 19:18:00,29.7,9.9,30.27,SW,225,3.1,8.1,43,0.00,,BKN,0.00,0.00,VWS V14.01,2014-01-01 00:18:00,
2013-12-31 19:23:00,29.3,9.6,30.27,SW,225,2.5,5.4,43,0.00,,BKN,0.00,0.00,VWS V14.01,2014-01-01 00:23:00,
2013-12-31 19:28:00,29.1,9.4,30.27,West,270,2.5,7.2,43,0.00,,BKN,0.00,0.00,VWS V14.01,2014-01-01 00:28:00,
2013-12-31 19:33:00,29.1,9.9,30.27,SW,225,4.0,12.1,44,0.00,,BKN,0.00,0.00,VWS V14.01,2014-01-01 00:33:00,
2013-12-31 19:38:00,28.9,9.8,30.27,SW,225,4.0,8.1,44,0.00,,BKN,0.00,0.00,VWS V14.01,2014-01-01 00:38:00,
2013-12-31 19:43:00,29.1,9.9,30.27,WNW,292,4.7,11.4,44,0.00,,BKN,0.00,0.00,VWS V14.01,2014-01-01 00:43:00,
2013-12-31 19:48:00,28.8,9.6,30.27,SW,225,2.7,5.4,44,0.00,,BKN,0.00,0.00,VWS V14.01,2014-01-01 00:48:00,
2013-12-31 19:53:00,28.6,9.4,30.27,West,270,3.6,4.0,44,0.00,,BKN,0.00,0.00,VWS V14.01,2014-01-01 00:53:00,
2013-12-31 19:58:00,28.6,9.4,30.27,West,270,3.4,4.7,44,0.00,,BKN,0.00,0.00,VWS V14.01,2014-01-01 00:58:00,
2013-12-31 20:03:00,28.6,9.9,30.27,SW,225,2.7,4.0,45,0.00,,BKN,0.00,0.00,VWS V14.01,2014-01-01 01:03:00,
2013-12-31 20:08:00,28.6,9.4,30.27,WSW,248,3.8,6.5,44,0.00,,BKN,0.00,0.00,VWS V14.01,2014-01-01 01:08:00,
2013-12-31 20:13:00,28.8,10.1,30.27,SW,225,3.1,6.3,45,0.00,,BKN,0.00,0.00,VWS V14.01,2014-01-01 01:13:00,
2013-12-31 20:19:00,28.8,9.6,30.27,NW,315,5.6,6.3,44,0.00,,BKN,0.00,0.00,VWS V14.01,2014-01-01 01:19:00,
2013-12-31 20:24:00,28.8,9.6,30.27,West,270,2.9,10.7,44,0.00,,BKN,0.00,0.00,VWS V14.01,2014-01-01 01:24:00,
2013-12-31 20:29:00,28.8,9.6,30.27,South,180,6.5,9.0,44,0.00,,BKN,0.00,0.00,VWS V14.01,2014-01-01 01:29:00,
2013-12-31 20:34:00,28.6,8.9,30.30,SW,225,4.0,7.4,43,0.00,,BKN,0.00,0.00,VWS V14.01,2014-01-01 01:34:00,
2013-12-31 20:39:00,28.4,8.8,30.30,WNW,292,3.6,7.6,43,0.00,,BKN,0.00,0.00,VWS V14.01,2014-01-01 01:39:00,
2013-12-31 20:44:00,28.2,9.1,30.30,WNW,292,2.7,7.6,44,0.00,,BKN,0.00,0.00,VWS V14.01,2014-01-01 01:44:00,
2013-12-31 20:49:00,27.9,8.8,30.30,SW,225,2.5,5.4,44,0.00,,BKN,0.00,0.00,VWS V14.01,2014-01-01 01:49:00,
2013-12-31 20:54:00,27.5,8.5,30.30,SW,225,4.0,5.4,44,0.00,,BKN,0.00,0.00,VWS V14.01,2014-01-01 01:54:00,
2013-12-31 20:59:00,27.3,8.3,30.30,SW,225,3.1,6.3,44,0.00,,BKN,0.00,0.00,VWS V14.01,2014-01-01 01:59:00,
2013-12-31 21:04:00,27.3,8.3,30.30,SW,225,6.5,6.5,44,0.00,,BKN,0.00,0.00,VWS V14.01,2014-01-01 02:04:00,
2013-12-31 21:09:00,27.5,7.9,30.30,SW,225,2.5,8.1,43,0.00,,BKN,0.00,0.00,VWS V14.01,2014-01-01 02:09:00,
2013-12-31 21:14:00,27.5,7.9,30.30,SW,225,4.3,8.1,43,0.00,,BKN,0.00,0.00,VWS V14.01,2014-01-01 02:14:00,
2013-12-31 21:19:00,27.3,7.8,30.33,NW,315,4.9,8.5,43,0.00,,BKN,0.00,0.00,VWS V14.01,2014-01-01 02:19:00,
2013-12-31 21:24:00,27.3,7.3,30.33,SW,225,3.6,7.8,42,0.00,,BKN,0.00,0.00,VWS V14.01,2014-01-01 02:24:00,
2013-12-31 21:30:00,27.0,6.9,30.33,SW,225,4.3,10.1,42,0.00,,BKN,0.00,0.00,VWS V14.01,2014-01-01 02:30:00,
2013-12-31 21:35:00,27.0,6.9,30.33,West,270,2.9,10.1,42,0.00,,BKN,0.00,0.00,VWS V14.01,2014-01-01 02:35:00,
2013-12-31 21:40:00,27.0,6.9,30.33,NW,315,3.1,8.1,42,0.00,,BKN,0.00,0.00,VWS V14.01,2014-01-01 02:40:00,
2013-12-31 21:45:00,26.8,6.8,30.33,WSW,248,4.3,10.3,42,0.00,,BKN,0.00,0.00,VWS V14.01,2014-01-01 02:45:00,
2013-12-31 21:50:00,26.8,6.8,30.33,WNW,292,3.8,10.3,42,0.00,,BKN,0.00,0.00,VWS V14.01,2014-01-01 02:50:00,
2013-12-31 21:55:00,26.6,6.6,30.33,SW,225,3.8,6.5,42,0.00,,BKN,0.00,0.00,VWS V14.01,2014-01-01 02:55:00,
2013-12-31 22:00:00,26.4,6.4,30.33,West,270,2.9,8.1,42,0.00,,BKN,0.00,0.00,VWS V14.01,2014-01-01 03:00:00,
2013-12-31 22:06:00,26.2,6.3,30.33,West,270,3.4,6.9,42,0.00,,BKN,0.00,0.00,VWS V14.01,2014-01-01 03:06:00,
2013-12-31 22:11:00,26.2,6.3,30.33,SW,225,6.0,7.6,42,0.00,,BKN,0.00,0.00,VWS V14.01,2014-01-01 03:11:00,
2013-12-31 22:16:00,26.1,6.1,30.33,NW,315,5.8,8.5,42,0.00,,BKN,0.00,0.00,VWS V14.01,2014-01-01 03:16:00,
2013-12-31 22:21:00,26.1,6.1,30.33,NW,315,3.4,8.5,42,0.00,,BKN,0.00,0.00,VWS V14.01,2014-01-01 03:21:00,
2013-12-31 22:26:00,25.9,6.0,30.33,SW,225,3.1,7.8,42,0.00,,BKN,0.00,0.00,VWS V14.01,2014-01-01 03:26:00,
2013-12-31 22:31:00,25.7,5.8,30.36,WSW,248,2.0,6.0,42,0.00,,BKN,0.00,0.00,VWS V14.01,2014-01-01 03:31:00,
2013-12-31 22:36:00,25.5,5.6,30.36,WSW,248,2.0,8.1,42,0.00,,BKN,0.00,0.00,VWS V14.01,2014-01-01 03:36:00,
2013-12-31 22:41:00,25.5,5.6,30.36,West,270,6.5,10.1,42,0.00,,BKN,0.00,0.00,VWS V14.01,2014-01-01 03:41:00,
2013-12-31 22:46:00,25.3,5.5,30.33,SW,225,3.4,7.4,42,0.00,,BKN,0.00,0.00,VWS V14.01,2014-01-01 03:46:00,
2013-12-31 22:51:00,25.3,5.5,30.33,WSW,248,3.1,9.8,42,0.00,,BKN,0.00,0.00,VWS V14.01,2014-01-01 03:51:00,
2013-12-31 22:56:00,25.3,5.5,30.33,West,270,5.6,9.8,42,0.00,,BKN,0.00,0.00,VWS V14.01,2014-01-01 03:56:00,
2013-12-31 23:01:00,25.3,5.5,30.30,WNW,292,2.5,7.2,42,0.00,,BKN,0.00,0.00,VWS V14.01,2014-01-01 04:01:00,
2013-12-31 23:06:00,25.2,5.3,30.30,West,270,2.7,6.3,42,0.00,,BKN,0.00,0.00,VWS V14.01,2014-01-01 04:06:00,
2013-12-31 23:11:00,25.0,5.1,30.30,West,270,2.0,6.0,42,0.00,,BKN,0.00,0.00,VWS V14.01,2014-01-01 04:11:00,
2013-12-31 23:16:00,25.0,5.1,30.33,West,270,2.0,6.5,42,0.00,,BKN,0.00,0.00,VWS V14.01,2014-01-01 04:16:00,
2013-12-31 23:21:00,24.8,5.0,30.33,WSW,248,1.6,6.5,42,0.00,,BKN,0.00,0.00,VWS V14.01,2014-01-01 04:21:00,
2013-12-31 23:26:00,24.8,5.0,30.33,NW,315,0.9,4.9,42,0.00,,BKN,0.00,0.00,VWS V14.01,2014-01-01 04:26:00,
2013-12-31 23:31:00,24.8,5.0,30.36,West,270,2.9,5.8,42,0.00,,BKN,0.00,0.00,VWS V14.01,2014-01-01 04:31:00,
2013-12-31 23:36:00,24.6,4.8,30.36,NW,315,1.6,10.1,42,0.00,,BKN,0.00,0.00,VWS V14.01,2014-01-01 04:36:00,
2013-12-31 23:41:00,24.4,4.7,30.36,West,270,2.0,7.2,42,0.00,,BKN,0.00,0.00,VWS V14.01,2014-01-01 04:41:00,
2013-12-31 23:46:00,24.4,4.7,30.36,West,270,3.4,4.9,42,0.00,,BKN,0.00,0.00,VWS V14.01,2014-01-01 04:46:00,
2013-12-31 23:51:00,24.3,4.5,30.36,WSW,248,3.1,6.3,42,0.00,,BKN,0.00,0.00,VWS V14.01,2014-01-01 04:51:00,
2013-12-31 23:56:00,24.3,4.5,30.36,WSW,248,3.1,6.3,42,0.00,,BKN,0.00,0.00,VWS V14.01,2014-01-01 04:56:00,